Regional Weather Roundup
Issued by NWS Upton, NY

Current Version | Previous Version | Graphics & Text | Print | Product List | Glossary Off
Versions: 1 2 3 4 5 6 7 8 9 10 11 12 13 14 15 16 17 18 19 20 21 22 23 24 25 26 27 28 29 30 31 32 33 34 35 36 37 38 39 40 41 42 43 44 45 46 47

000
ASUS41 KOKX 192005
RWROKX

REGIONAL WEATHER ROUNDUP
NATIONAL WEATHER SERVICE NEW YORK NY
400 PM EDT FRI SEP 19 2014

NOTE: "FAIR" INDICATES FEW OR NO CLOUDS BELOW 12,000 FEET WITH NO
SIGNIFICANT WEATHER AND/OR OBSTRUCTIONS TO VISIBILITY.

NYZ071-072-176-178-NJZ106-104-192100-
NEW YORK CITY METRO AREA


CITY           SKY/WX    TMP DP  RH WIND       PRES   REMARKS
CENTRAL PARK   SUNNY     65  44  46 NE8       30.37S
LAGUARDIA APRT MOSUNNY   64  44  48 NE12      30.35S
KENNEDY INTL   MOSUNNY   65  47  52 SE13      30.35S
NEWARK/LIBERTY PTSUNNY   65  48  54 SE8       30.34S
BRNX BOT. GARD   N/A     63  43  48 NE10      30.36F
TETERBORO      SUNNY     66  44  45 VRB6      30.34S
$$

NYZ177-179-078>081-192100-
LONG ISLAND NEW YORK

CITY           SKY/WX    TMP DP  RH WIND       PRES   REMARKS
FARMINGDALE    PTSUNNY   63  48  58 SE13      30.36R
ISLIP          MOSUNNY   64  43  46 NE10      30.35R
SHIRLEY        SUNNY     64  42  44 VRB5      30.36S
WESTHAMPTON    SUNNY     64  41  42 NE9G21    30.38R
MONTAUK POINT    N/A     61  40  45 E7        30.38F
$$

NYZ052-065-067-192100-
HUDSON VALLEY

CITY           SKY/WX    TMP DP  RH WIND       PRES   REMARKS
WHITE PLAINS   SUNNY     61  42  49 SE7       30.35S
NEWBURGH       MOSUNNY   63  45  51 VRB6      30.35F
MONTGOMERY     SUNNY     64  43  46 CALM      30.33F
POUGHKEEPSIE   SUNNY     64  40  41 CALM      30.33F
ALBANY         MOSUNNY   60  36  40 S6        30.34F
$$

NJZ001-105-106-008-010-013-015-019>022-104-192100-
NEW JERSEY

CITY           SKY/WX    TMP DP  RH WIND       PRES   REMARKS
NEWARK/LIBERTY PTSUNNY   65  48  54 SE8       30.34S
TETERBORO      SUNNY     66  44  45 VRB6      30.34S
CALDWELL       SUNNY     65  44  46 SE10      30.34S
MORRISTOWN     MOSUNNY   66  46  48 SE5       30.34S
SOMERVILLE     PTSUNNY   69  49  48 VRB7      30.31S
LINDEN         CLOUDY    69  51  53 S8        30.36S
SUSSEX         MOSUNNY   67  45  45 VRB3      30.32F
ANDOVER          N/A     65  44  46 CALM      30.33S
TRENTON        PTSUNNY   65  49  56 SE10      30.33R
MILLVILLE      MOSUNNY   68  54  60 E14       30.29F
ATLANTIC CITY  PTSUNNY   67  55  65 E16       30.31R
WRIGHTSTOWN    CLOUDY    64  53  68 NE10      30.31S
TOMS RIVER     CLOUDY    63  52  67 E5        30.34S
BELMAR         CLOUDY    63  48  59 NE13      30.35S
$$

PAZ047>061-062-071-192100-
EASTERN PENNSYLVANIA

CITY           SKY/WX    TMP DP  RH WIND       PRES   REMARKS
PHILADELPHIA   PTSUNNY   71  52  50 E10       30.31S
ALLENTOWN      PTSUNNY   69  48  47 CALM      30.31F
SCRANTON       PTSUNNY   67  47  48 VRB6      30.29F
$$

CTZ002-004>006-009-010-012-RIZ004-006-007-MAZ004-011-015-192100-
SOUTHERN NEW ENGLAND
 IN CT

CITY           SKY/WX    TMP DP  RH WIND       PRES   REMARKS
BRADLEY INTL   MOSUNNY   64  34  32 CALM      30.35F
HARTFORD       SUNNY     62  35  36 VRB6      30.36S
DANBURY        SUNNY     62  40  44 E8        30.36F
WTRBRY/OXFORD  SUNNY     61  37  41 CALM      30.36F
BRIDGEPORT     PTSUNNY   62  43  49 SE10      30.36S
MERIDEN        SUNNY     65  34  31 NE3       30.35F
NEW HAVEN      MOSUNNY   64  41  42 SE12      30.37S
CHESTER        FAIR      61  36  39 CALM      30.37S
GROTON         SUNNY     61  41  47 SE13      30.36S
WILLIMANTIC    SUNNY     62  32  32 VRB3      30.37S

 IN RI

CITY           SKY/WX    TMP DP  RH WIND       PRES   REMARKS
PROVIDENCE     MOSUNNY   60  34  37 E9        30.38S
BLOCK ISLAND   SUNNY     61  39  44 E12       30.38S
WESTERLY       SUNNY     62  36  37 SE9       30.37S

 IN MA

CITY           SKY/WX    TMP DP  RH WIND       PRES   REMARKS
BOSTON         MOSUNNY   54  34  46 E10       30.42S
WORCESTER      SUNNY     55  30  38 VRB6      30.37S
WESTFIELD      SUNNY     61  33  35 VRB5      30.35F
PROVINCETOWN   SUNNY     55  34  44 NE8       30.41S
NANTUCKET      MOSUNNY   58  37  45 NE14      30.38R
$$

ANZ330-335-338-340-345-350-353-355-192100-
COASTAL MARINE OBSERVATIONS


STATION/POSITION TIME  SKY/WX   TEMP    WIND        PRES    VSBY  WAVE
                                AIR SEA DIR/SP/G                  HT/PER
                 (UTC)          (F)     (DEG/KT/KT) (MB)    (MI)  (FT/S)
NY HARB ENTRANCE 2000            61 70   70/ 12/ 14 1027.9          4/ 6
4S FIRE IS       2000               70                N/A           4/ 6
20S FIRE ISLAND  2000            60 68   60/ 17/ 21 1027.7          5/ 7
23SW MTP         2000                                 N/A           5/ 6
HUDSON CANYON    2000            65 72   60/ 19/ 21 1025.8          6/ 7
EXECUTION ROCKS  2000            62 71   70/ 10/ 14   N/A
WESTERN LI SOUND 2000            60      80/ 10/ 12   N/A           2/ 5
CENTRAL LI SOUND 2000            59 70  130/  8/ 10   N/A           1/ 4
EASTERN LI SOUND 1900            62 69  130/ 10/ 14   N/A
ROBBINS REEF     2000            62     200/  2/  4 1026.5
$$


>>>>>>>>>>>>>>>>>>>>>>>>>>>> KEY <<<<<<<<<<<<<<<<<<<<<<<<<<<
>                                                          <
>     SKY/WX - SKY CONDITION/PRESENT WEATHER               <
>     TMP    - TEMPERATURE IN FAHRENHEIT                   <
>     DP     - DEWPOINT IN FAHRENHEIT                      <
>     RH     - RELATIVE HUMIDITY IN PERCENT                <
>     WIND   - DIRECTION AND SPEED IN MPH                  <
>     PRES   - MEAN SEA LEVEL PRESSURE IN INCHES OF HG     <
>     WCI    - WIND CHILL INDEX                            <
>     VSB    - VISIBILITY IN MILES                         <
>     HX     - HEAT INDEX                                  <
>     TC     - TEMPERATURE IN CELSIUS                      <
>     VRB    - VARIABLE WIND DIRECTION                     <
>                                                          <
>>>>>>>>>>>>>>>>>>>>>>>>>>>> KEY <<<<<<<<<<<<<<<<<<<<<<<<<<<





USA.gov is the U.S. government's official web portal to all federal, state and local government web resources and services.